Location: Alpha Ridge Park
(39.3209°N, 76.9128°W)
Time: 23:30:53
(UTC-04:00)

Vanguard 2 Rocket - Pass Details

Date: 28 May 2019
Orbit: 555 x 3326 km, 32.9° (Epoch: 24 June)

Event Time Altitude Azimuth Distance (km) Brightness Sun altitude
Rises 11:36:17 0° 279° (W) 6,071 10.9 64.0°
Reaches altitude 10° 11:41:43 10° 269° (W) 4,542 10.4 64.8°
Maximum altitude 11:50:24 25° 221° (SW) 2,606 9.6 66.1°
Drops below altitude 10° 11:56:12 10° 168° (SSE) 2,918 9.9 66.9°
Sets 11:58:52 0° 154° (SSE) 3,567 10.3 67.3°
